{"data":{"norad_id":62492,"intl_designator":"2025-003F","name":"STARLINK-32757","alt_names":[],"object_type":"PAYLOAD","status":"ACTIVE","operator":null,"country":"US","launch_date":"2025-01-06","launch_site_code":"AFETR","launch_vehicle":null,"mission":null,"orbit_class":"UNKNOWN","rcs_meters":null,"size_class":null,"mass_kg":null,"dimensions":null,"purposes":["comms"],"wikipedia_slug":null,"has_3d_model":false,"image_url":null,"decayed_at":null,"tle_current":{"epoch":"2026-09-21T16:21:36.010656Z","epoch_age_seconds":72475,"freshness":"FRESH","line1":"1 62492U 25003F   26264.68166679  .00008830  00000+0  32996-3 0  9992","line2":"2 62492  42.9982 262.3113 0001072 266.7420  93.3309 15.27584016 96522","mean_motion":15.27584016,"eccentricity":0.0001072,"inclination_deg":42.9982,"raan_deg":262.3113,"arg_perigee_deg":266.742,"mean_anomaly_deg":93.3309,"bstar":0.00032996,"rev_number":9652,"period_min":94.266500887503,"perigee_km":482.30155285687,"apogee_km":483.77258857763,"semimajor_km":6861.1740707172,"source":"CELESTRAK","updated_at":"2026-09-22T09:00:49.617041Z"}}}